AAL1332 KORD-KDCA

Flight info

Callsign AAL1332
Flight time 1h 19m
Altitude 33000
Route MOBLE ADIME OTENS ANEWA JERRI NUSMM BUCKO FRDMM6
Aircraft MD82/M-SDFGIRWY/C

Departure

Time 2026-05-05 20:36
Airport Chicago O'Hare International Airport (KORD)

Arrival

Time 2026-05-05 21:55
Airport Ronald Reagan Washington National Airport (KDCA)
Time Latitude Longitude Altitude Speed Heading
2026-05-05 20:14 41.97461 -87.89938 655 ft 0 kts
2026-05-05 20:24 41.97455 -87.89939 655 ft 2 kts 13°
2026-05-05 20:24 41.97441 -87.89945 656 ft 2 kts 19°
2026-05-05 20:24 41.97428 -87.89950 655 ft 1 kts 16°
2026-05-05 20:25 41.97420 -87.89948 655 ft 1 kts 315°
2026-05-05 20:25 41.97411 -87.89934 655 ft 2 kts 313°
2026-05-05 20:25 41.97401 -87.89922 655 ft 1 kts 327°
2026-05-05 20:25 41.97396 -87.89920 655 ft 0 kts 353°
2026-05-05 20:29 41.97400 -87.89920 656 ft 1 kts
2026-05-05 20:29 41.97403 -87.89902 655 ft 3 kts 115°
2026-05-05 20:29 41.97381 -87.89867 655 ft 6 kts 139°
2026-05-05 20:30 41.97347 -87.89831 655 ft 4 kts 144°
2026-05-05 20:30 41.97324 -87.89809 655 ft 3 kts 146°
2026-05-05 20:30 41.97293 -87.89779 654 ft 8 kts 137°
2026-05-05 20:30 41.97288 -87.89685 653 ft 13 kts 60°
2026-05-05 20:31 41.97269 -87.89584 652 ft 12 kts 142°
2026-05-05 20:31 41.97212 -87.89520 652 ft 8 kts 124°
2026-05-05 20:31 41.97198 -87.89457 652 ft 5 kts 96°
2026-05-05 20:31 41.97196 -87.89409 652 ft 4 kts 92°
2026-05-05 20:32 41.97195 -87.89359 652 ft 6 kts 91°
2026-05-05 20:32 41.97194 -87.89275 652 ft 11 kts 90°
2026-05-05 20:32 41.97194 -87.89149 652 ft 15 kts 90°
2026-05-05 20:32 41.97194 -87.88981 652 ft 20 kts 89°
2026-05-05 20:33 41.97195 -87.88782 652 ft 21 kts 90°
2026-05-05 20:33 41.97195 -87.88583 652 ft 21 kts 90°
2026-05-05 20:33 41.97172 -87.88390 652 ft 20 kts 98°
2026-05-05 20:33 41.97171 -87.88213 650 ft 19 kts 88°
2026-05-05 20:34 41.97138 -87.88051 649 ft 17 kts 145°
2026-05-05 20:34 41.97021 -87.88035 649 ft 17 kts 180°
2026-05-05 20:34 41.96933 -87.88052 649 ft 9 kts 218°
2026-05-05 20:34 41.96893 -87.88100 650 ft 13 kts 220°
2026-05-05 20:35 41.96779 -87.88235 652 ft 37 kts 222°
2026-05-05 20:35 41.96447 -87.88631 652 ft 88 kts 221°
2026-05-05 20:35 41.95858 -87.89331 655 ft 136 kts 221°
2026-05-05 20:35 41.95059 -87.90250 889 ft 155 kts 223°
2026-05-05 20:36 41.94234 -87.91160 1415 ft 157 kts 220°
2026-05-05 20:36 41.93264 -87.91901 1824 ft 169 kts 205°
2026-05-05 20:36 41.92061 -87.92139 2230 ft 185 kts 176°
2026-05-05 20:36 41.90797 -87.91512 2600 ft 200 kts 144°
2026-05-05 20:37 41.89791 -87.90346 3197 ft 196 kts 137°
2026-05-05 20:37 41.88738 -87.89035 3450 ft 214 kts 136°
2026-05-05 20:37 41.87689 -87.87592 4014 ft 216 kts 129°
2026-05-05 20:37 41.86791 -87.85826 4040 ft 251 kts 117°
2026-05-05 20:38 41.86062 -87.83594 4462 ft 266 kts 106°
2026-05-05 20:38 41.85722 -87.81146 4897 ft 281 kts 85°
2026-05-05 20:38 41.86124 -87.78568 5590 ft 282 kts 73°
2026-05-05 20:38 41.86567 -87.76002 6278 ft 289 kts 75°
2026-05-05 20:39 41.86987 -87.73350 6986 ft 294 kts 76°
2026-05-05 20:39 41.87383 -87.70651 7610 ft 303 kts 78°
2026-05-05 20:39 41.87765 -87.67851 8265 ft 310 kts 79°
2026-05-05 20:39 41.88132 -87.65002 8933 ft 316 kts 80°
2026-05-05 20:40 41.88497 -87.62013 9549 ft 324 kts 81°
2026-05-05 20:40 41.88839 -87.59122 10411 ft 316 kts 82°
2026-05-05 20:40 41.89165 -87.56245 11340 ft 308 kts 82°
2026-05-05 20:40 41.89476 -87.53464 12213 ft 299 kts 82°
2026-05-05 20:41 41.89780 -87.50712 12744 ft 306 kts 81°
2026-05-05 20:41 41.90100 -87.47790 12768 ft 332 kts 81°
2026-05-05 20:41 41.90444 -87.44607 12878 ft 355 kts 81°
2026-05-05 20:41 41.90812 -87.41206 13000 ft 377 kts 81°
2026-05-05 20:42 41.91193 -87.37655 13241 ft 395 kts 82°
2026-05-05 20:42 41.91530 -87.33997 13971 ft 397 kts 87°
2026-05-05 20:42 41.91304 -87.30299 14404 ft 404 kts 102°
2026-05-05 20:42 41.90875 -87.26587 15116 ft 405 kts 101°
2026-05-05 20:43 41.90461 -87.22815 15600 ft 412 kts 100°
2026-05-05 20:43 41.90058 -87.19003 16194 ft 415 kts 100°
2026-05-05 20:43 41.89673 -87.15188 16780 ft 417 kts 99°
2026-05-05 20:43 41.89285 -87.11282 17201 ft 426 kts 99°
2026-05-05 20:44 41.88896 -87.07257 17843 ft 426 kts 99°
2026-05-05 20:44 41.88516 -87.03292 18295 ft 433 kts 99°
2026-05-05 20:44 41.88135 -86.99232 18810 ft 436 kts 99°
2026-05-05 20:44 41.87765 -86.95264 19403 ft 437 kts 100°
2026-05-05 20:45 41.87016 -86.87154 20455 ft 442 kts 100°
2026-05-05 20:45 41.86634 -86.82998 20868 ft 447 kts 101°
2026-05-05 20:45 41.86259 -86.78902 21468 ft 446 kts 100°
2026-05-05 20:46 41.85878 -86.74707 21734 ft 455 kts 100°
2026-05-05 20:46 41.85502 -86.70572 22375 ft 453 kts 100°
2026-05-05 20:46 41.85123 -86.66346 22738 ft 458 kts 100°
2026-05-05 20:46 41.84742 -86.62120 23189 ft 461 kts 101°
2026-05-05 20:47 41.84358 -86.57825 23678 ft 463 kts 101°
2026-05-05 20:47 41.83978 -86.53578 24092 ft 466 kts 100°
2026-05-05 20:47 41.83594 -86.49237 24457 ft 471 kts 100°
2026-05-05 20:47 41.83208 -86.44901 24920 ft 473 kts 100°
2026-05-05 20:48 41.82822 -86.40490 25249 ft 477 kts 100°
2026-05-05 20:48 41.82434 -86.36072 25586 ft 482 kts 99°
2026-05-05 20:48 41.82046 -86.31602 26115 ft 479 kts 100°
2026-05-05 20:48 41.81663 -86.27160 26324 ft 486 kts 101°
2026-05-05 20:49 41.81271 -86.22711 26684 ft 487 kts 101°
2026-05-05 20:49 41.80833 -86.18196 27004 ft 490 kts 102°
2026-05-05 20:49 41.80376 -86.13652 27301 ft 494 kts 101°
2026-05-05 20:49 41.79910 -86.09089 27659 ft 495 kts 101°
2026-05-05 20:50 41.79444 -86.04553 27889 ft 499 kts 102°
2026-05-05 20:50 41.79127 -86.01459 28109 ft 501 kts 101°
2026-05-05 20:50 41.78497 -85.95332 28467 ft 506 kts 101°
2026-05-05 20:50 41.78012 -85.90618 28808 ft 507 kts 101°
2026-05-05 20:51 41.77537 -85.85969 29067 ft 510 kts 101°
2026-05-05 20:51 41.77054 -85.81233 29271 ft 515 kts 100°
2026-05-05 20:51 41.76577 -85.76511 29746 ft 513 kts 100°
2026-05-05 20:51 41.76095 -85.71780 29898 ft 517 kts 100°
2026-05-05 20:52 41.75615 -85.67028 30319 ft 517 kts 100°
2026-05-05 20:52 41.75141 -85.62329 30615 ft 518 kts 99°
2026-05-05 20:52 41.74661 -85.57533 30908 ft 520 kts 100°
2026-05-05 20:52 41.74179 -85.52715 31220 ft 520 kts 99°
2026-05-05 20:53 41.73705 -85.47963 31620 ft 519 kts 99°
2026-05-05 20:53 41.73237 -85.43223 31838 ft 522 kts 99°
2026-05-05 20:53 41.72763 -85.38410 32205 ft 521 kts 98°
2026-05-05 20:53 41.72298 -85.33636 32532 ft 521 kts 99°
2026-05-05 20:54 41.71825 -85.28814 32727 ft 523 kts 98°
2026-05-05 20:54 41.71355 -85.23975 32846 ft 527 kts 99°
2026-05-05 20:54 41.70403 -85.14143 32854 ft 528 kts 98°
2026-05-05 20:55 41.69400 -85.04512 32865 ft 519 kts 100°
2026-05-05 20:55 41.68363 -84.94860 32854 ft 518 kts 99°
2026-05-05 20:56 41.67536 -84.87019 32855 ft 521 kts 100°
2026-05-05 20:56 41.66671 -84.78738 32850 ft 521 kts 96°
2026-05-05 20:57 41.66222 -84.69144 32849 ft 519 kts 93°
2026-05-05 20:57 41.65775 -84.59463 32849 ft 518 kts 94°
2026-05-05 20:58 41.65311 -84.49908 32863 ft 518 kts 94°
2026-05-05 20:58 41.65154 -84.46787 32858 ft 519 kts 94°
2026-05-05 20:59 41.64805 -84.39629 32857 ft 518 kts 94°
2026-05-05 20:59 41.64449 -84.32237 32843 ft 518 kts 95°
2026-05-05 21:00 41.63982 -84.22631 32844 ft 518 kts 94°
2026-05-05 21:00 41.63524 -84.13046 32861 ft 516 kts 95°
2026-05-05 21:01 41.63112 -84.04286 32852 ft 515 kts 94°
2026-05-05 21:01 41.62932 -84.00291 32838 ft 514 kts 94°
2026-05-05 21:02 41.62495 -83.90713 32857 ft 515 kts 94°
2026-05-05 21:02 41.62062 -83.81149 32855 ft 516 kts 94°
2026-05-05 21:03 41.61644 -83.71554 32853 ft 516 kts 94°
2026-05-05 21:03 41.61202 -83.61965 32867 ft 516 kts 97°
2026-05-05 21:04 41.59683 -83.52622 32861 ft 510 kts 112°
2026-05-05 21:04 41.57452 -83.43629 32865 ft 510 kts 111°
2026-05-05 21:05 41.55288 -83.34522 32865 ft 513 kts 111°
2026-05-05 21:05 41.53189 -83.25492 32854 ft 509 kts 111°
2026-05-05 21:06 41.51109 -83.16481 32837 ft 508 kts 111°
2026-05-05 21:06 41.49030 -83.07454 32837 ft 510 kts 110°
2026-05-05 21:07 41.46962 -82.98368 32843 ft 508 kts 110°
2026-05-05 21:07 41.44923 -82.89404 32852 ft 508 kts 110°
2026-05-05 21:08 41.42880 -82.80399 32853 ft 507 kts 111°
2026-05-05 21:08 41.40846 -82.71398 32867 ft 509 kts 110°
2026-05-05 21:09 41.38715 -82.62421 32846 ft 505 kts 117°
2026-05-05 21:09 41.35256 -82.54485 32827 ft 491 kts 137°
2026-05-05 21:10 41.32809 -82.51424 32918 ft 476 kts 148°
2026-05-05 21:10 41.30285 -82.48493 32820 ft 481 kts 145°
2026-05-05 21:10 41.25428 -82.42360 32852 ft 481 kts 144°
2026-05-05 21:11 41.20582 -82.36151 32846 ft 485 kts 142°
2026-05-05 21:11 41.16956 -82.31387 32842 ft 483 kts 142°
2026-05-05 21:12 41.12209 -82.25085 32842 ft 482 kts 142°
2026-05-05 21:12 41.07485 -82.18778 32825 ft 484 kts 142°
2026-05-05 21:13 41.02742 -82.12427 32841 ft 484 kts 142°
2026-05-05 21:13 40.98002 -82.06068 32836 ft 486 kts 141°
2026-05-05 21:14 40.93264 -81.99706 32835 ft 486 kts 141°
2026-05-05 21:14 40.88523 -81.93325 32846 ft 484 kts 141°
2026-05-05 21:15 40.83819 -81.86995 32832 ft 484 kts 141°
2026-05-05 21:15 40.79071 -81.80605 32862 ft 487 kts 141°
2026-05-05 21:16 40.74304 -81.74243 32851 ft 487 kts 141°
2026-05-05 21:16 40.69500 -81.67942 32832 ft 487 kts 142°
2026-05-05 21:17 40.64703 -81.61669 32842 ft 488 kts 141°
2026-05-05 21:17 40.59872 -81.55367 32839 ft 487 kts 141°
2026-05-05 21:18 40.55023 -81.49040 32855 ft 489 kts 141°
2026-05-05 21:18 40.50221 -81.42770 32857 ft 486 kts 141°
2026-05-05 21:19 40.45423 -81.36498 32853 ft 487 kts 141°
2026-05-05 21:19 40.40609 -81.30205 32839 ft 486 kts 141°
2026-05-05 21:20 40.35822 -81.23948 32833 ft 488 kts 141°
2026-05-05 21:20 40.31034 -81.17677 32823 ft 489 kts 141°
2026-05-05 21:21 40.26219 -81.11369 32828 ft 489 kts 141°
2026-05-05 21:21 40.21455 -81.05122 32827 ft 485 kts 141°
2026-05-05 21:22 40.16681 -80.98871 32839 ft 486 kts 142°
2026-05-05 21:22 40.11858 -80.92671 32866 ft 489 kts 141°
2026-05-05 21:23 40.07010 -80.86433 32865 ft 488 kts 141°
2026-05-05 21:23 40.02172 -80.80183 32850 ft 490 kts 140°
2026-05-05 21:24 39.97401 -80.73791 32844 ft 489 kts 140°
2026-05-05 21:24 39.92625 -80.67393 32855 ft 490 kts 140°
2026-05-05 21:25 39.87884 -80.61034 32874 ft 490 kts 139°
2026-05-05 21:25 39.83161 -80.54699 32868 ft 491 kts 139°
2026-05-05 21:26 39.78392 -80.48289 32881 ft 491 kts 139°
2026-05-05 21:26 39.73629 -80.41894 32875 ft 493 kts 138°
2026-05-05 21:27 39.68879 -80.35505 32881 ft 494 kts 138°
2026-05-05 21:27 39.64125 -80.29106 32881 ft 491 kts 139°
2026-05-05 21:28 39.59380 -80.22716 32880 ft 493 kts 139°
2026-05-05 21:28 39.54674 -80.16370 32879 ft 492 kts 139°
2026-05-05 21:29 39.49942 -80.09988 32805 ft 490 kts 139°
2026-05-05 21:29 39.47606 -80.06834 32527 ft 483 kts 138°
2026-05-05 21:29 39.45307 -80.03725 32287 ft 472 kts 139°
2026-05-05 21:30 39.43059 -80.00718 32051 ft 462 kts 139°
2026-05-05 21:30 39.40836 -79.97770 31814 ft 453 kts 139°
2026-05-05 21:30 39.38664 -79.94891 31604 ft 448 kts 140°
2026-05-05 21:30 39.36484 -79.92001 31412 ft 452 kts 139°
2026-05-05 21:31 39.34233 -79.89025 31260 ft 461 kts 139°
2026-05-05 21:31 39.32001 -79.86074 31112 ft 467 kts 138°
2026-05-05 21:31 39.30025 -79.82696 30921 ft 476 kts 120°
2026-05-05 21:31 39.28789 -79.78711 30690 ft 481 kts 104°
2026-05-05 21:32 39.28379 -79.74476 30381 ft 479 kts 92°
2026-05-05 21:32 39.28170 -79.70209 30084 ft 477 kts 94°
2026-05-05 21:32 39.27916 -79.65948 29718 ft 475 kts 95°
2026-05-05 21:32 39.27636 -79.61735 29379 ft 471 kts 95°
2026-05-05 21:33 39.27345 -79.57601 29039 ft 469 kts 95°
2026-05-05 21:33 39.27025 -79.53438 28760 ft 464 kts 96°
2026-05-05 21:33 39.26692 -79.49300 28351 ft 464 kts 96°
2026-05-05 21:33 39.26362 -79.45157 27959 ft 464 kts 97°
2026-05-05 21:34 39.26031 -79.41061 27582 ft 465 kts 96°
2026-05-05 21:34 39.25699 -79.36933 27187 ft 464 kts 96°
2026-05-05 21:34 39.25366 -79.32774 26792 ft 461 kts 97°
2026-05-05 21:34 39.25043 -79.28723 26383 ft 457 kts 97°
2026-05-05 21:35 39.24717 -79.24642 26005 ft 452 kts 97°
2026-05-05 21:35 39.24389 -79.20695 25749 ft 444 kts 98°
2026-05-05 21:35 39.24054 -79.16787 25418 ft 436 kts 98°
2026-05-05 21:35 39.23722 -79.12914 25106 ft 429 kts 98°
2026-05-05 21:36 39.23399 -79.09163 24808 ft 423 kts 98°
2026-05-05 21:36 39.23077 -79.05402 24520 ft 419 kts 98°
2026-05-05 21:36 39.22762 -79.01720 24238 ft 418 kts 98°
2026-05-05 21:36 39.22443 -78.97992 23981 ft 419 kts 98°
2026-05-05 21:37 39.22105 -78.94254 23728 ft 424 kts 99°
2026-05-05 21:37 39.21733 -78.90440 23296 ft 430 kts 99°
2026-05-05 21:37 39.21366 -78.86657 22886 ft 430 kts 99°
2026-05-05 21:37 39.20997 -78.82845 22464 ft 428 kts 99°
2026-05-05 21:38 39.20632 -78.79085 22061 ft 423 kts 99°
2026-05-05 21:38 39.20270 -78.75333 21644 ft 418 kts 99°
2026-05-05 21:38 39.19912 -78.71674 21317 ft 410 kts 100°
2026-05-05 21:38 39.19547 -78.68021 20731 ft 410 kts 99°
2026-05-05 21:39 39.19189 -78.64425 20177 ft 409 kts 100°
2026-05-05 21:39 39.18824 -78.60772 19600 ft 408 kts 99°
2026-05-05 21:39 39.18464 -78.57176 19053 ft 406 kts 99°
2026-05-05 21:39 39.18108 -78.53600 18521 ft 404 kts 99°
2026-05-05 21:40 39.17754 -78.50055 17986 ft 402 kts 99°
2026-05-05 21:40 39.17398 -78.46477 17452 ft 401 kts 99°
2026-05-05 21:40 39.17049 -78.42959 16922 ft 399 kts 99°
2026-05-05 21:40 39.16701 -78.39441 16397 ft 397 kts 99°
2026-05-05 21:41 39.16284 -78.35917 15972 ft 390 kts 105°
2026-05-05 21:41 39.15552 -78.32652 15703 ft 378 kts 112°
2026-05-05 21:41 39.14725 -78.29452 15418 ft 370 kts 112°
2026-05-05 21:41 39.13937 -78.26368 15138 ft 363 kts 111°
2026-05-05 21:42 39.13152 -78.23290 14871 ft 358 kts 111°
2026-05-05 21:42 39.12388 -78.20267 14631 ft 358 kts 111°
2026-05-05 21:42 39.11613 -78.17187 14400 ft 361 kts 111°
2026-05-05 21:42 39.10839 -78.14108 14181 ft 363 kts 111°
2026-05-05 21:43 39.10071 -78.11043 13976 ft 364 kts 111°
2026-05-05 21:43 39.09267 -78.07911 13495 ft 370 kts 111°
2026-05-05 21:43 39.08471 -78.04802 13015 ft 371 kts 111°
2026-05-05 21:43 39.07668 -78.01663 12514 ft 370 kts 111°
2026-05-05 21:44 39.06864 -77.98527 12098 ft 366 kts 111°
2026-05-05 21:44 39.06082 -77.95471 11855 ft 357 kts 111°
2026-05-05 21:44 39.05310 -77.92467 11584 ft 350 kts 111°
2026-05-05 21:44 39.04556 -77.89520 11332 ft 343 kts 111°
2026-05-05 21:45 39.03822 -77.86652 11091 ft 335 kts 111°
2026-05-05 21:45 39.03093 -77.83841 10842 ft 328 kts 111°
2026-05-05 21:45 39.02388 -77.81099 10551 ft 323 kts 111°
2026-05-05 21:45 39.01685 -77.78363 10256 ft 318 kts 111°
2026-05-05 21:46 39.01000 -77.75694 10023 ft 311 kts 112°
2026-05-05 21:46 39.00326 -77.73110 9759 ft 308 kts 112°
2026-05-05 21:46 38.99655 -77.70515 9420 ft 306 kts 112°
2026-05-05 21:46 38.98986 -77.67925 9058 ft 305 kts 112°
2026-05-05 21:47 38.98316 -77.65336 8703 ft 304 kts 113°
2026-05-05 21:47 38.97573 -77.62823 8439 ft 298 kts 115°
2026-05-05 21:47 38.96861 -77.60410 8326 ft 287 kts 115°
2026-05-05 21:47 38.96258 -77.57972 8094 ft 290 kts 99°
2026-05-05 21:48 38.96251 -77.55373 7823 ft 296 kts 93°
2026-05-05 21:48 38.96274 -77.52724 7571 ft 294 kts 92°
2026-05-05 21:48 38.96296 -77.50096 7251 ft 296 kts 92°
2026-05-05 21:48 38.96315 -77.47500 6928 ft 297 kts 93°
2026-05-05 21:49 38.96333 -77.44823 6591 ft 296 kts 93°
2026-05-05 21:49 38.96350 -77.42161 6254 ft 295 kts 94°
2026-05-05 21:49 38.96366 -77.39552 5925 ft 295 kts 94°
2026-05-05 21:49 38.96381 -77.36907 5567 ft 293 kts 94°
2026-05-05 21:50 38.96396 -77.34304 5240 ft 291 kts 95°
2026-05-05 21:50 38.96410 -77.31743 4875 ft 285 kts 95°
2026-05-05 21:50 38.96424 -77.29216 4519 ft 285 kts 95°
2026-05-05 21:50 38.96437 -77.26684 4039 ft 282 kts 95°
2026-05-05 21:51 38.96452 -77.24208 3618 ft 280 kts 95°
2026-05-05 21:51 38.96467 -77.21710 3175 ft 279 kts 95°
2026-05-05 21:51 38.96481 -77.19205 2797 ft 280 kts 95°
2026-05-05 21:51 38.96513 -77.16768 2770 ft 262 kts 96°
2026-05-05 21:52 38.95195 -77.13459 2652 ft 172 kts 150°
2026-05-05 21:52 38.94294 -77.12505 2426 ft 169 kts 149°
2026-05-05 21:52 38.93406 -77.11581 2221 ft 157 kts 153°
2026-05-05 21:53 38.92536 -77.10870 1969 ft 140 kts 160°
2026-05-05 21:53 38.91740 -77.10188 1624 ft 139 kts 152°
2026-05-05 21:53 38.91014 -77.09304 1242 ft 155 kts 137°
2026-05-05 21:53 38.90518 -77.08061 1053 ft 154 kts 117°
2026-05-05 21:54 38.90121 -77.06823 835 ft 146 kts 131°
2026-05-05 21:54 38.89430 -77.05962 731 ft 137 kts 148°
2026-05-05 21:54 38.88660 -77.05207 616 ft 139 kts 144°
2026-05-05 21:54 38.87974 -77.04357 392 ft 135 kts 150°
2026-05-05 21:55 38.87140 -77.03985 229 ft 122 kts 176°
2026-05-05 21:55 38.86277 -77.03883 86 ft 125 kts 177°
2026-05-05 21:55 38.85455 -77.03808 22 ft 107 kts 176°
2026-05-05 21:55 38.84954 -77.03758 21 ft 24 kts 182°
2026-05-05 21:56 38.84879 -77.03871 22 ft 12 kts 263°
2026-05-05 21:56 38.84898 -77.03940 23 ft 6 kts 329°
2026-05-05 21:56 38.84927 -77.03951 23 ft 3 kts 349°
2026-05-05 21:56 38.84952 -77.03957 23 ft 5 kts 354°
2026-05-05 21:57 38.85011 -77.03964 24 ft 11 kts 355°
2026-05-05 21:57 38.85113 -77.03973 24 ft 17 kts 355°
2026-05-05 21:57 38.85246 -77.03986 24 ft 21 kts 355°